Location: Peterborough
(44.3091°N, 78.3197°W)
Time: 06:59:10
(UTC-04:00)

Vanguard 1 Rocket - Pass Details

Date: 31 March 2023
Orbit: 655 x 4220 km, 34.3° (Epoch: 04 June)

Event Time Altitude Azimuth Distance (km) Brightness Sun altitude
Rises 22:34:02 0° 238° (WSW) 8,329 12.5 -29.1°
Reaches altitude 10° 22:39:53 10° 235° (SW) 7,405 12.1 -29.9°
Maximum altitude 23:04:38 57° 166° (SSE) 4,047 10.2 -32.9°
Enters shadow 23:09:59 48° 127° (SE) 3,955 10.0 -33.5°
Drops below altitude 10° 23:20:59 10° 94° (E) 5,169 - -34.7°
Sets 23:24:11 0° 90° (E) 5,798 - -35.1°
